PRÉPARATION DES VOLS

Pour bien préparer vos sorties, pensez à télécharger la fiche technique de votre avion, la check-list, le manuel de vol, le devis de centrage ou encore un modèle de Log de Nav.

 

Type : 2 places train classique

Moteur : Continental 90 cv.

Performances : 140 km/h

Type : 2/3 places en instruction & entraînement (devis de centrage).

Moteur : Lycoming 4 cyl. à plat, 108 cv.

Performances : 180 km/h

Autonomie : 4 h soit environ 720 km franchissables.

Avionique : 1 radio com Bendix/King, 1 VOR, 1 transpondeur.

Type : 3/4 places instruction, entraînement, voyage.

Moteur : Lycoming 4 cyl. à plat, 120 cv.

Performances : 190 km/h

Autonomie : 4 h soit environ 760 km franchissables.

Avionique : 1 radio com Bendix/King, 1 VOR, 1 transpondeur mode S, intercom 2 voies type.

 

Type : 3/4 places instruction, entraînement, voyage.

Moteur : Lycoming 4 cyl. à plat, 120 cv.

Performances : 190 km/h

Autonomie : 4 h soit environ 760 km franchissables.

Avionique : 1 radio com Bendix/King, 1 VOR, 1 transpondeur mode S, intercom 2 voies type.

 

Type : 4 places, pour entraînement et voyage.

Moteur : Robin Lycoming 4 cyl. à plat, 160 cv.

Performances : 206 km/h

Autonomie : 2 h 50 min soit environ 580 km de distance franchissable.

Avionique : 1 radio com Bendix/King, 1 VOR, 1 transpondeur mode S, intercom 4 voies.

 

 

 

 

 

 

 

Type : 4 places, avion de voyage

Moteur : Lycoming 4 cylindres à plat, 180CV

Vitesse de croisière : 225 km/h

Autonomie : 4h

Avionique : Garmin GNS 430, 1 VOR, 1 transpondeur mode S

 

Télécharger l’aide mémoire de la radio GTR 225A

Télécharger l’aide mémoire de la radio GNC 255A

Télécharger un log de nav

Log 1

Cliquez sur le formulaire pour le télécharger

Log_1*Notice d’utilisation*

Ce Log de Nav a été optimisé pour rendre les calculs automatiques sous Excel. Indiquez simplement vos points de report, les altitudes et les distances en NM. La feuille calcule alors le temps sans vent pour chaque étape et donne le total, qu’elle convertit en heure-minutes. Elle calcule également la distance totale et la convertit en kilomètres. Enfin, elle affiche le résultat du devis carburant, calculé automatiquement par le 2ème feuillet. Vous pouvez également inscrire préalablement les fréquences Radio et Nav. Les autres cases sont à remplir pendant le vol : date, top départ, heure estimée (grisée), heure réelle,horamètre, Atis…
Bons vols à tous !
Guillaume

Log 2

Cliquez sur le formulaire pour le télécharger

Log_2

Log 3

 Cliquez sur le formulaire pour le télécharger

Log_3

L’alphabet Morse et l’alphabet international

Alphabet International

Nos coordonnées

Aéroclub Renault

Aérodrome de Chavenay

78450 Chavenay-Villepreux

telephone

Atis

Télécharger la VAC LFPX

 

Télécharger le calcul de centrage

Télécharger la feuille ATIS

Télécharger le mémo VFR 2020-2021

 

Télécharger le formulaire de prorogation SEP

METARS / TAF de Toussus, Evreux, Orly et Roissy

Toussus

LFPN 181100Z AUTO VRB02KT 9999 FEW040 26/16 Q1014 TEMPO 4000 -SHRA SCT040TCU

TAF TAF AMD LFPN 132015Z 1320/1420 17005KT 5000 BKN025 TEMPO 1320/1324 2000 BR OVC008 PROB30 TEMPO 1320/1324 0800 FG OVC002

Evreux

LFOE 181100Z AUTO 31006KT 250V350 9000 NSC 23/17 Q1015 NOSIG

TAF TAF LFOE 180800Z 1809/1909 30006KT 9999 SCT004 BECMG 1809/1810 BKN012 BECMG 1810/1812 SCT030 PROB30 TEMPO 1814/1816 VRB10G20KT 6000 -SHRA FEW040TCU BECMG 1823/1901 BKN012 BECMG 1901/1903 SCT004 BKN008 PROB30 TEMPO 1904/1906 4000 -DZRA BECMG 1907/1908 BKN014

Orly

LFPO 181100Z VRB02KT 9999 FEW038 SCT260 26/16 Q1014 NOSIG

TAF LFPO 181100Z 1812/1918 34006KT 9999 SCT040 PROB40 TEMPO 1813/1817 4000 SHRA SCT040TCU BECMG 1817/1819 CAVOK PROB40 TEMPO 1904/1908 BKN012 TEMPO 1913/1918 3000 SHRA BKN030CB

Roissy

LFPG 181100Z 33004KT 260V020 9999 FEW030 SCT260 25/17 Q1014 NOSIG

TAF AMD LFPG 180716Z 1807/1912 VRB03KT 3000 BR BKN002 TX27/1815Z TN14/1905Z TEMPO 1807/1809 0500 FG BECMG 1808/1810 9999 NSW SCT020 BECMG 1810/1812 34010KT PROB40 TEMPO 1815/1820 -SHRA SCT050TCU TEMPO 1821/1902 CAVOK BECMG 1903/1905 BKN013 PROB30 TEMPO 1906/1908 BKN008 BECMG 1910/1912 BKN020

Abonnez-vous à notre Newsletter !

*Champs obligatoires

En vous abonnant, vous acceptez de recevoir des e-mails d'information de l'Aéroclub Renault.

Vous pourrez vous désinscrire à tout moment.

Voir notre page de politique de confidentialité

Share This